GFSSW_925_spd_048.txt.gz
Wind_Speed
6 4 7 10 12 12 12 11 12 13 13 12 12 10 10 11 9 7 3 4 6 9 8 11 8 4 8 2 2 1 3 4 4 3 5 2 3 7 9 10 13 6 8 4 6
7 6 6 8 9 10 11 12 13 12 12 10 10 10 8 11 9 11 2 5 6 8 7 8 5 8 3 1 2 1 3 4 5 6 5 6 5 7 0 9 9 8 9 10 12
9 7 7 8 8 10 11 12 13 12 11 9 10 9 6 7 6 4 3 5 5 5 8 7 8 7 3 3 2 4 3 5 4 7 6 3 6 5 3 5 5 5 5 7 12
8 8 8 8 9 10 11 12 12 11 10 8 10 8 6 1 0 3 4 5 4 6 7 6 6 3 3 2 1 4 5 3 3 2 3 3 7 4 7 6 7 3 3 7 8
8 8 9 9 10 11 11 12 10 10 7 8 8 7 1 5 2 3 5 6 5 4 3 4 7 2 5 3 3 4 6 4 3 2 5 3 4 6 6 7 6 5 4 6 7
10 9 9 10 10 11 11 11 9 10 5 7 8 6 3 3 2 2 4 5 6 3 5 7 6 6 5 4 4 3 4 7 5 5 4 6 4 5 6 7 7 7 6 6 6
13 10 9 10 10 10 11 10 10 7 4 7 6 3 7 2 1 1 3 2 5 5 2 6 6 5 5 4 1 3 6 5 6 6 5 3 6 8 12 9 8 8 7 7 7
10 11 10 10 10 11 9 8 8 3 5 6 5 4 1 3 3 2 1 2 2 3 3 3 6 3 5 4 3 4 8 6 11 10 6 4 5 8 9 8 8 9 9 6 5
9 10 9 10 10 9 7 8 4 1 5 5 5 7 5 4 4 2 2 2 1 1 2 3 4 3 1 4 5 7 6 10 5 9 7 7 3 7 9 8 8 7 9 8 7
9 9 9 9 7 6 7 6 3 2 3 5 11 5 4 3 5 1 2 2 2 1 1 2 3 2 4 6 6 6 4 8 1 8 5 7 10 11 10 9 8 8 8 8 8
8 8 8 7 4 7 6 2 4 3 9 4 6 6 6 7 3 3 1 2 3 3 3 3 2 6 5 4 5 7 8 8 8 6 2 7 11 8 13 8 7 7 7 8 9
8 8 6 3 6 7 4 5 5 4 4 1 2 7 6 1 4 5 2 3 4 5 5 3 6 4 3 4 4 7 9 9 2 7 2 8 12 9 15 11 9 9 8 9 7
9 7 6 7 7 5 7 6 3 6 4 3 2 5 3 3 3 7 7 2 5 7 5 7 4 3 2 1 5 7 7 7 7 2 8 7 11 14 9 10 8 7 7 7 9
8 9 11 11 3 6 3 1 3 4 4 6 5 3 4 1 3 1 3 2 2 4 5 5 5 2 2 6 7 7 8 6 6 5 3 3 5 4 11 9 9 9 8 8 8
12 12 12 6 6 2 3 1 4 3 4 8 5 2 3 3 6 3 1 3 4 5 1 1 1 2 4 2 6 4 4 4 5 7 8 8 3 4 11 7 10 10 9 8 7
11 11 10 3 3 2 2 3 4 3 2 3 4 6 6 4 5 4 3 2 1 4 7 7 3 2 5 3 3 3 5 8 4 4 4 10 7 4 6 11 9 10 10 10 9
10 9 6 2 2 3 2 3 4 4 5 5 5 5 8 6 5 2 4 5 2 3 5 8 8 4 2 3 4 4 4 2 3 3 3 6 4 4 7 6 3 12 11 10 9
8 5 2 3 2 2 4 4 4 6 6 3 3 3 4 4 3 3 3 4 1 3 4 4 4 5 4 2 5 6 2 3 4 2 2 4 5 4 7 7 4 4 10 9 8
7 4 4 3 0 0 4 5 5 6 3 3 3 4 7 4 1 3 6 4 6 6 3 6 4 4 4 4 2 3 3 3 4 8 4 5 3 4 4 5 4 5 8 8 7
3 7 4 3 1 4 3 5 4 4 2 2 3 2 4 8 3 4 6 3 3 4 4 2 2 1 4 2 4 3 5 2 2 3 4 4 6 3 4 5 4 6 6 6 5
4 3 1 3 2 4 4 4 4 4 4 2 4 1 1 2 3 2 6 2 1 2 3 3 3 3 1 6 2 3 3 4 1 2 3 3 2 2 7 3 9 8 9 9 9
6 2 1 3 4 4 3 4 1 3 1 1 2 3 3 3 2 1 3 5 4 4 2 4 3 4 3 4 5 3 4 3 2 4 3 2 5 8 8 7 7 8 7 7 4
3 3 2 3 3 5 4 4 3 2 2 1 2 2 2 1 1 2 4 2 3 3 5 5 3 4 2 2 2 3 4 4 5 2 5 1 5 6 7 5 5 3 2 1 2
3 3 3 3 3 6 5 4 3 3 2 2 3 1 1 3 2 2 4 2 1 3 2 3 3 4 3 3 2 4 3 4 4 2 4 6 14 9 10 6 7 7 6 7 4
3 2 2 3 5 3 2 3 6 3 1 2 3 5 2 2 3 3 4 5 3 4 2 2 3 5 8 9 8 8 10 10 12 12 7 12 12 14 6 6 5 4 3 1 5
3 2 2 2 1 5 2 4 6 4 4 5 2 4 1 2 6 4 1 3 4 5 2 3 2 4 4 6 3 7 13 13 12 12 13 14 14 6 3 6 6 6 7 7 6
2 1 2 2 3 3 2 5 4 8 2 6 2 3 3 5 5 6 4 3 4 1 6 4 2 2 4 2 8 8 4 2 3 4 4 6 7 4 6 6 7 8 8 7 5

GFSSW_925_spd_051.txt.gz
Wind_Speed
5 4 4 8 9 10 10 11 11 12 14 14 14 12 14 15 11 4 3 3 5 9 9 13 11 9 5 3 1 3 5 3 3 2 4 4 3 5 4 8 5 3 3 1 7
5 4 4 6 7 9 9 10 11 13 14 13 12 10 14 14 8 6 4 5 6 8 5 9 7 10 2 1 1 4 4 1 2 2 3 3 6 2 4 4 5 4 6 10 16
8 6 5 6 7 8 9 10 11 13 13 12 10 10 12 11 3 3 1 3 6 5 6 9 10 2 2 1 1 2 4 4 3 4 5 3 3 3 6 2 2 6 3 6 14
8 8 7 7 7 8 9 11 11 12 12 10 8 10 10 3 4 2 2 2 1 5 9 5 3 2 1 3 2 5 4 4 3 2 2 1 6 4 3 2 7 5 4 7 9
7 8 8 8 8 9 10 11 12 12 9 9 6 9 3 2 3 2 2 3 2 7 6 3 3 2 1 4 2 4 4 5 4 4 4 6 3 6 5 5 6 3 9 8 8
8 9 9 9 9 10 11 11 12 11 7 7 4 7 2 2 5 1 4 2 3 4 5 6 3 2 2 3 4 3 6 7 4 4 2 4 3 2 6 7 6 6 7 7 8
11 11 9 9 10 10 10 11 10 8 7 4 3 3 3 5 2 2 3 3 4 6 1 4 6 4 2 4 1 6 4 3 6 6 5 6 1 8 8 9 9 8 7 7 7
13 13 11 10 10 10 9 10 8 6 8 2 3 1 4 4 4 2 2 1 3 2 2 2 4 1 4 3 1 3 4 3 6 9 3 6 7 4 10 10 9 9 8 8 6
10 10 11 10 9 7 8 8 6 7 7 2 2 3 3 5 3 3 1 3 2 2 1 2 1 2 3 4 4 2 4 6 2 8 5 5 5 5 9 10 10 9 9 8 7
10 10 10 7 6 7 7 5 4 7 4 3 6 2 4 3 5 4 2 2 2 1 0 0 3 3 3 4 4 3 3 2 5 7 6 7 10 7 12 10 10 9 9 9 9
10 8 7 7 6 5 3 2 1 0 4 4 5 3 5 6 5 3 1 2 2 0 2 2 4 4 5 6 5 2 1 4 2 3 5 8 8 10 12 8 9 9 10 9 10
8 7 7 6 4 5 5 3 1 2 3 5 0 5 5 3 3 3 4 0 2 2 2 4 2 3 3 3 3 3 3 6 3 2 1 6 13 11 14 15 13 10 9 10 7
9 8 7 7 5 7 10 5 1 4 5 1 1 4 1 2 3 2 4 4 2 2 3 5 1 2 1 1 2 3 1 3 2 2 4 3 8 5 2 5 7 6 7 7 13
9 9 9 6 4 7 4 2 4 3 4 2 2 1 2 0 3 1 3 2 2 2 2 1 2 2 1 2 1 2 1 2 4 5 3 3 5 6 4 6 8 8 7 8 9
9 8 8 13 7 1 2 2 2 2 4 4 3 2 4 3 6 2 1 1 1 3 5 5 3 2 2 1 2 3 1 1 1 1 4 3 1 7 7 4 8 9 9 8 9
7 8 10 6 6 4 3 1 1 5 2 3 4 4 4 3 4 3 1 1 0 2 2 4 2 2 2 2 3 3 2 3 2 2 2 6 7 5 4 7 5 6 9 9 8
8 10 9 4 3 5 1 2 4 3 4 4 4 5 6 5 5 5 3 1 2 2 1 3 2 2 2 1 2 3 5 3 2 2 5 3 5 7 2 3 5 13 11 10 9
10 7 3 7 5 1 2 4 2 4 3 2 4 5 3 4 2 3 0 1 5 2 1 4 2 2 1 1 3 4 6 4 4 3 4 5 5 3 2 5 7 7 9 8 7
8 5 4 3 2 1 5 3 3 2 2 4 2 3 3 3 4 2 2 2 2 5 4 3 2 1 4 2 2 1 2 4 1 2 1 4 1 3 4 4 6 8 8 7 8
2 3 3 2 2 2 4 2 2 3 4 1 1 5 3 4 3 5 3 3 3 2 1 1 0 2 1 2 1 2 2 2 2 2 4 5 1 2 4 4 4 6 7 7 6
3 2 2 4 2 4 2 2 3 3 5 4 3 2 2 4 3 2 2 3 5 0 1 2 3 2 2 4 5 1 2 2 2 5 4 1 5 5 1 1 4 2 5 8 9
2 1 3 5 3 1 2 2 2 2 2 3 3 3 3 3 1 3 4 3 5 3 2 0 3 3 5 1 1 1 3 4 4 4 1 4 5 2 8 7 7 5 4 3 5
1 3 2 1 2 1 2 3 4 2 2 1 2 3 3 3 2 3 5 2 4 4 1 2 1 2 4 4 2 1 3 3 4 3 4 4 5 3 4 4 1 2 5 6 4
2 2 3 3 2 3 4 3 3 3 2 3 3 2 1 2 3 2 3 1 1 2 0 2 1 5 5 3 3 2 3 1 4 3 3 6 4 7 5 3 4 2 2 2 2
1 3 5 2 4 3 2 5 4 3 1 1 1 2 1 3 3 4 3 2 1 2 1 3 2 2 4 6 4 5 7 7 7 6 4 4 7 7 5 2 1 1 5 4 5
1 2 3 1 3 5 3 2 5 4 3 2 0 4 2 3 1 3 4 4 4 2 2 1 2 3 4 4 3 5 9 8 6 6 8 7 8 2 2 3 7 6 5 6 7
1 2 4 4 2 4 2 1 4 8 2 3 3 3 5 3 3 3 3 3 4 6 4 4 2 3 4 6 6 6 3 2 4 3 2 2 4 4 6 7 5 7 7 8 4

GFSSW_925_spd_054.txt.gz
Wind_Speed
9 8 8 9 10 10 11 11 11 12 13 15 15 15 13 16 17 5 5 3 4 9 9 11 5 5 2 2 1 3 5 2 3 5 3 1 3 3 2 6 3 2 4 2 8
10 8 7 7 8 9 10 11 11 12 13 14 14 14 11 15 15 9 5 4 4 6 7 7 5 9 2 1 2 4 4 7 2 2 4 2 4 7 5 3 4 3 5 12 18
11 9 7 7 8 8 9 10 10 12 13 13 12 12 10 13 4 5 6 5 2 4 4 6 10 2 0 1 1 2 5 5 3 4 4 5 3 2 9 2 5 7 4 7 16
11 10 8 7 8 8 9 10 11 12 13 11 10 10 8 5 5 2 4 2 3 4 3 7 4 2 3 3 2 4 1 3 4 2 3 5 6 4 1 2 8 6 6 6 9
7 8 8 8 9 9 10 11 11 12 12 10 7 7 2 1 7 2 4 3 2 2 3 3 4 3 5 3 3 3 4 4 4 5 5 6 2 5 4 4 6 9 9 8 9
7 7 8 9 9 10 11 12 10 12 10 7 5 5 1 2 3 1 4 5 4 1 4 3 5 3 4 2 4 3 3 3 3 3 2 4 2 1 6 5 6 8 7 6 9
11 10 10 10 10 11 12 11 10 10 7 6 4 1 2 7 3 3 3 4 5 4 4 3 2 1 2 3 1 6 4 4 2 4 3 5 3 7 6 8 8 8 7 7 8
13 13 12 11 11 12 11 10 8 8 7 4 4 3 5 3 4 4 4 2 3 1 1 1 3 1 3 1 5 4 4 0 4 7 2 4 9 3 9 11 10 9 8 8 6
11 12 12 12 12 11 10 7 8 6 5 4 1 4 5 2 4 4 3 4 3 1 1 3 1 2 4 5 4 4 3 5 7 9 5 6 7 3 8 10 10 9 9 8 7
10 11 12 11 11 9 7 6 3 3 3 4 7 0 3 5 5 4 3 4 1 1 2 3 4 3 3 3 5 5 3 4 4 6 6 5 12 2 8 7 11 9 8 8 9
10 11 10 9 8 6 5 1 2 1 3 7 5 2 3 4 6 2 2 2 1 4 3 1 4 4 6 6 4 3 2 4 4 2 5 6 7 8 11 7 9 9 10 8 10
10 10 8 6 6 5 4 3 5 1 2 8 4 0 3 4 3 2 1 2 3 3 2 5 2 4 5 4 4 2 3 4 3 2 4 5 11 10 9 15 18 14 12 10 7
8 8 7 6 5 5 8 10 4 5 3 3 1 2 2 2 2 1 2 0 2 2 3 4 2 3 3 2 2 0 3 2 4 4 4 4 8 5 1 1 6 6 10 8 13
7 7 6 5 2 3 6 4 3 5 4 1 0 2 1 3 3 1 2 2 2 3 3 3 1 3 2 2 3 2 3 1 1 3 3 3 5 6 4 3 6 8 9 10 10
6 7 8 9 5 3 5 5 6 1 4 3 2 1 1 3 5 3 2 4 2 1 5 5 4 2 2 2 1 4 2 0 1 2 3 3 3 7 2 3 7 9 9 8 9
7 7 6 4 6 5 8 7 2 5 2 3 3 3 3 1 0 2 2 3 2 2 3 2 1 1 3 2 2 3 3 7 5 3 2 4 5 5 3 5 3 5 7 7 8
6 6 7 3 2 8 8 1 5 4 1 4 4 4 2 3 1 2 2 3 2 3 1 2 1 1 1 2 4 5 5 3 3 2 6 1 4 7 5 3 3 10 9 8 9
7 7 7 14 6 7 2 5 2 2 2 2 4 4 4 4 2 2 3 2 5 3 2 3 4 2 2 2 4 3 6 5 5 3 4 4 4 4 3 6 6 2 7 7 8
9 6 6 3 2 3 5 3 3 1 3 4 3 3 3 1 4 2 2 3 1 2 5 4 4 1 3 2 2 1 2 2 2 2 2 3 4 6 2 6 8 6 5 8 8
3 2 4 3 3 2 4 3 3 2 3 2 3 3 5 4 2 3 4 2 1 1 2 2 2 1 1 2 2 2 2 2 3 2 4 4 4 3 5 1 2 3 4 5 6
1 2 1 3 2 5 3 4 2 2 2 2 2 2 3 4 4 3 2 2 4 1 2 1 2 2 2 3 5 2 2 2 3 4 4 2 5 3 2 3 3 4 7 7 8
3 2 2 4 3 1 2 1 0 2 3 3 2 2 2 1 2 3 3 1 3 1 2 2 3 3 5 3 1 3 4 4 4 3 1 4 6 2 2 8 7 5 5 5 1
2 1 2 2 3 1 2 2 3 1 2 2 2 3 2 2 3 3 3 1 2 2 3 2 1 2 5 4 1 3 3 3 4 3 5 4 5 1 2 4 5 3 2 2 2
3 2 4 4 1 6 4 3 2 1 1 2 2 1 2 2 4 4 2 1 1 2 3 2 2 5 5 3 2 4 3 4 5 3 3 6 4 5 5 2 3 4 5 6 6
2 3 4 3 3 4 4 5 4 3 1 2 2 2 3 3 2 3 2 1 1 1 2 3 3 2 3 5 4 6 7 6 6 5 5 3 5 6 7 1 4 4 5 7 7
3 3 2 2 1 6 1 6 6 3 4 3 2 4 2 4 4 6 5 4 3 1 3 2 1 2 3 3 5 4 6 8 6 4 6 5 5 3 5 5 7 6 6 6 6
2 1 4 2 2 4 4 5 7 8 1 1 2 4 3 4 4 4 5 5 5 6 4 3 3 2 4 5 6 5 2 5 2 2 1 3 1 3 6 5 5 6 2 2 2

GFSSW_925_spd_060.txt.gz
Wind_Speed
10 12 12 12 12 12 11 12 13 14 16 17 18 20 21 22 23 16 7 9 4 7 12 11 1 1 2 2 3 3 5 3 7 7 4 5 4 2 1 5 2 3 2 5 17
12 12 12 12 10 9 10 11 12 13 15 16 17 19 19 19 23 15 14 9 7 5 7 9 4 3 2 2 2 4 4 9 6 5 4 5 3 6 4 3 3 3 6 13 16
13 12 13 12 10 9 9 11 12 13 14 14 16 17 16 17 5 8 7 13 8 3 1 8 10 3 3 1 2 3 4 5 3 3 4 6 3 2 7 3 6 8 7 5 14
12 13 12 12 10 9 10 11 12 13 13 14 15 15 13 7 6 2 6 10 7 3 2 2 5 1 3 2 2 3 2 4 4 3 4 5 6 2 3 1 3 9 8 7 9
11 9 10 10 9 9 10 11 12 13 14 14 12 12 7 3 9 2 4 7 6 5 5 3 3 2 4 2 1 3 2 5 5 6 5 6 3 3 4 3 7 10 8 9 9
10 8 7 8 10 10 11 11 13 13 14 12 10 9 2 4 3 2 4 6 6 6 5 4 4 4 2 5 2 3 3 4 2 3 3 3 2 0 4 6 7 9 9 8 11
11 11 8 9 9 11 12 12 13 14 13 10 7 5 3 11 2 2 4 3 4 4 3 4 0 2 3 4 1 5 1 2 1 3 2 5 2 7 5 7 9 8 8 8 11
13 12 11 10 11 12 13 13 14 13 11 7 4 2 7 6 4 4 4 4 5 3 1 3 2 4 1 6 6 5 5 2 0 3 1 2 7 2 7 10 9 9 8 8 7
12 14 13 12 13 12 13 14 13 11 8 5 3 3 9 4 3 4 4 4 7 5 4 4 3 4 5 5 5 5 3 3 8 4 2 3 6 1 5 7 9 9 9 8 7
12 11 10 9 10 10 13 11 8 7 3 3 3 2 7 4 3 5 3 6 4 4 3 5 5 3 3 4 5 6 3 3 5 1 1 2 11 5 5 8 11 9 8 8 8
9 9 8 8 8 8 8 2 2 2 5 7 4 4 2 2 3 5 4 5 3 6 3 3 4 6 10 3 3 5 3 3 2 2 3 6 9 12 8 7 9 9 9 9 9
9 8 8 7 6 6 4 2 4 2 5 12 6 7 8 2 4 4 2 4 2 3 4 5 5 3 4 5 3 3 3 3 3 1 3 4 11 11 4 6 9 13 11 11 7
9 8 7 5 4 5 6 11 5 16 2 2 6 3 3 4 2 2 3 2 2 3 3 5 1 5 4 4 4 2 3 2 4 4 1 6 7 5 2 2 3 6 5 6 12
9 6 6 6 3 1 5 4 11 3 4 4 1 2 2 3 4 2 2 2 2 5 6 2 2 3 3 3 4 1 1 2 2 3 3 4 5 6 4 8 4 5 7 9 10
9 7 7 9 1 4 2 13 4 2 4 2 2 0 3 5 4 4 3 4 2 2 4 2 2 2 3 1 1 2 4 3 3 3 3 3 2 7 5 6 8 7 6 7 8
9 9 7 6 9 6 13 10 3 3 2 2 1 1 5 4 2 1 3 6 1 4 5 2 1 3 2 3 4 6 4 6 4 3 1 2 3 5 4 5 7 5 5 6 7
9 9 11 5 2 7 16 2 4 4 1 1 3 2 3 1 2 2 4 5 2 3 1 4 2 2 2 4 3 5 5 3 4 3 5 1 2 6 5 4 4 9 9 5 5
10 10 7 14 10 15 7 4 4 2 2 2 4 4 4 4 3 3 3 2 5 3 3 4 3 2 4 2 5 2 5 5 4 2 4 1 5 2 3 5 5 4 3 2 2
8 6 6 3 6 1 4 3 3 1 2 4 3 3 2 2 4 5 3 2 1 3 4 4 1 1 4 2 2 2 2 2 5 3 1 3 5 4 7 8 8 10 10 8 7
3 2 3 3 1 1 4 3 1 1 2 1 2 2 3 2 3 3 3 1 1 2 0 3 2 2 1 2 4 2 5 3 3 2 3 4 4 3 5 5 7 9 8 7 6
1 2 1 0 0 4 2 4 2 1 1 3 2 3 2 3 4 3 3 2 1 1 3 3 3 2 1 2 6 2 0 5 4 3 4 2 5 5 2 4 6 7 8 8 8
3 1 3 2 3 1 2 2 2 1 4 3 3 3 4 3 3 2 5 2 2 1 3 1 4 3 3 1 1 2 4 5 4 4 1 4 5 1 3 4 4 6 6 6 6
2 1 3 2 2 1 3 1 2 2 3 2 2 2 2 3 3 2 3 2 3 2 3 3 1 2 5 4 2 2 3 4 5 3 5 4 5 1 2 6 6 6 6 6 6
3 1 4 4 0 5 4 2 1 2 2 3 2 2 3 2 5 4 2 2 3 2 6 3 2 4 5 2 1 1 3 4 4 3 4 6 4 2 6 4 4 5 4 4 5
2 3 2 2 2 3 3 3 3 1 2 3 2 2 2 2 2 3 2 1 3 3 3 3 2 2 3 3 1 3 4 5 6 4 5 4 7 1 2 4 2 3 4 4 5
4 3 3 1 1 5 1 5 5 2 2 1 2 2 3 3 1 6 5 3 2 2 2 3 1 2 2 3 3 4 7 6 4 3 7 4 6 4 3 1 4 4 5 5 5
3 2 4 1 2 4 4 5 6 7 3 3 3 4 5 2 4 3 5 6 5 5 3 2 3 2 4 4 6 6 4 5 4 4 4 4 4 4 2 3 4 5 5 7 7

GFSSW_925_spd_066.txt.gz
Wind_Speed
12 11 11 10 11 11 11 10 10 12 13 15 16 18 19 22 23 16 16 12 7 7 8 8 2 2 3 3 2 2 4 7 8 9 7 11 9 3 1 5 5 5 3 3 14
13 13 12 11 11 11 10 10 10 11 12 14 15 17 18 20 19 19 22 15 15 11 8 4 4 2 4 4 4 5 6 7 4 8 7 13 10 10 6 8 7 8 5 9 14
13 14 13 12 11 10 9 10 10 11 12 13 15 16 17 16 10 8 8 18 18 11 8 3 1 2 4 3 6 4 6 5 6 7 8 12 9 8 6 8 9 10 12 14 15
12 12 14 11 10 9 9 9 10 11 11 13 14 15 15 6 6 3 6 14 23 12 8 7 4 3 4 7 4 7 2 3 7 6 7 11 10 6 10 0 1 4 13 17 15
10 12 12 8 7 7 7 8 9 10 12 12 13 13 7 7 11 6 5 10 15 11 12 11 10 4 4 2 3 8 7 5 6 6 5 9 6 2 8 4 3 7 13 15 14
11 10 11 8 7 7 8 10 11 11 12 13 11 9 6 12 8 7 3 8 8 11 10 11 8 3 2 1 3 2 6 8 5 7 5 5 4 2 4 6 9 13 14 14 14
12 10 10 9 8 9 9 11 12 13 13 12 9 6 8 18 5 5 6 7 9 10 8 6 10 6 3 2 1 7 3 4 5 6 4 3 5 7 5 9 11 13 13 13 13
11 10 9 9 10 11 13 13 15 12 11 10 6 6 8 11 11 18 9 7 7 8 4 8 6 7 2 6 1 4 3 5 3 5 2 3 11 4 7 10 12 13 13 13 14
9 10 9 10 14 14 14 14 15 13 10 7 5 7 8 7 9 9 11 9 10 7 6 7 5 3 5 6 4 3 11 15 6 5 3 7 9 4 5 9 10 13 13 14 14
8 9 10 11 10 11 14 15 13 10 5 4 7 6 9 2 4 7 8 13 6 11 7 6 4 8 8 8 10 5 7 7 7 4 6 6 13 6 6 10 11 12 14 14 15
8 7 8 9 9 10 11 5 4 4 7 7 1 5 4 9 2 6 6 9 9 11 9 7 9 15 17 14 7 4 5 6 1 2 3 7 12 11 6 9 12 13 14 15 16
8 7 7 7 8 8 6 4 4 4 8 17 16 13 17 8 4 6 5 8 10 13 8 6 13 11 6 7 6 4 5 8 2 1 3 6 14 12 4 3 6 10 14 15 15
8 7 7 6 6 6 7 9 3 9 5 2 5 6 2 5 3 6 4 5 9 11 12 10 1 6 8 8 8 6 7 7 5 2 2 7 11 2 2 2 4 4 7 12 16
7 8 6 3 4 4 5 2 8 5 4 3 4 2 3 2 3 1 1 1 4 10 9 4 4 9 7 9 9 9 2 3 3 1 6 3 6 3 2 1 5 7 4 6 12
6 8 6 7 5 4 4 14 3 3 3 2 3 1 1 1 5 3 3 2 6 7 4 5 8 9 9 3 2 4 4 4 2 3 4 4 5 3 0 0 9 11 8 1 6
7 7 4 5 6 9 11 13 2 4 2 3 1 4 6 2 2 2 1 4 2 5 5 5 2 2 3 7 4 13 6 4 2 2 5 3 4 4 2 7 10 10 9 7 3
7 7 10 4 1 3 14 3 4 3 1 3 2 3 1 4 2 1 2 5 2 7 8 5 4 3 3 7 6 3 4 3 5 4 2 2 4 4 4 8 7 6 8 9 8
6 8 9 16 7 10 7 3 3 2 2 2 2 5 3 1 2 2 5 4 1 3 5 7 6 2 3 2 1 5 4 5 5 4 2 3 5 4 5 6 6 7 7 9 9
4 4 6 7 6 6 3 5 4 2 2 1 3 4 4 1 1 1 1 3 1 3 2 4 4 3 5 2 2 5 6 3 0 0 3 2 3 5 7 7 8 9 9 10 9
2 3 5 5 7 4 4 4 2 1 3 2 3 2 3 2 2 4 4 2 1 3 4 3 5 1 3 1 7 2 5 3 3 3 4 4 4 2 10 7 6 8 10 10 9
2 3 3 4 6 5 5 2 1 1 1 2 1 3 2 5 3 2 3 2 2 2 2 1 2 4 3 4 4 4 4 1 2 3 4 4 3 4 8 5 6 6 7 7 8
2 4 2 7 4 2 3 1 2 2 1 1 1 1 3 3 2 2 3 3 3 2 2 2 2 3 2 3 1 1 1 5 4 4 1 3 2 3 6 5 4 6 5 5 6
3 2 1 4 4 5 2 2 2 2 1 0 2 1 1 2 2 1 3 1 2 1 2 3 2 4 5 4 3 4 4 2 2 0 7 4 2 5 5 5 5 6 5 5 4
2 3 3 3 1 4 3 3 3 2 2 1 1 1 3 2 3 5 4 1 2 2 4 1 2 3 1 4 2 4 7 8 8 5 4 9 5 7 8 6 7 6 5 3 1
3 2 2 3 6 6 3 1 3 3 1 1 2 2 2 3 3 3 3 4 2 1 1 2 3 2 0 1 3 4 6 10 13 12 7 5 4 2 7 8 8 5 4 3 3
3 3 2 1 2 8 5 6 7 3 3 3 3 4 2 2 1 6 6 4 2 3 2 1 2 2 3 2 3 7 10 11 11 9 11 12 15 7 5 8 8 5 2 4 5
4 1 3 3 3 5 4 6 6 7 1 2 2 4 3 3 4 7 7 8 5 4 4 3 4 3 1 0 5 9 9 12 5 6 7 7 2 8 7 7 5 2 3 3 7

GFSSW_925_spd_069.txt.gz
Wind_Speed
13 12 13 12 12 12 12 12 11 12 13 15 17 19 20 22 26 22 21 16 10 12 9 11 9 7 6 7 7 3 8 10 11 8 7 10 12 5 3 2 6 6 2 6 17
11 12 13 13 12 12 12 12 12 12 13 14 16 18 20 22 24 25 28 21 24 17 10 11 8 7 6 10 5 8 10 14 3 7 6 13 12 10 6 8 7 7 4 7 15
12 13 13 15 12 11 11 12 12 13 13 14 16 18 19 19 18 12 3 27 23 16 13 11 7 7 12 8 11 8 13 9 3 3 5 13 11 9 7 7 8 10 11 11 15
12 12 13 14 11 10 10 11 12 13 13 15 16 17 18 12 6 8 11 11 22 19 14 12 10 10 8 12 13 10 12 6 5 4 8 12 10 8 10 2 4 2 8 13 15
11 11 11 12 9 8 9 11 12 13 14 15 16 16 13 11 18 16 18 8 15 19 17 13 14 11 10 9 10 13 5 3 4 7 7 8 9 4 10 4 3 3 8 12 13
12 12 12 11 10 9 11 12 14 15 15 15 15 14 14 20 15 16 9 4 12 19 18 15 13 14 7 3 6 5 1 3 5 7 5 8 5 2 8 6 6 7 10 12 13
11 11 11 10 11 12 13 14 15 17 17 15 15 12 15 21 11 7 10 8 12 16 13 15 13 9 6 4 1 1 6 4 5 5 3 5 7 11 6 8 8 9 10 11 12
9 11 11 10 11 14 15 17 19 18 17 15 13 12 13 18 17 27 19 14 12 14 11 10 9 12 6 4 5 6 3 4 5 1 4 5 9 10 7 8 8 10 10 11 12
10 9 8 10 13 18 18 20 20 18 16 12 11 11 13 6 14 21 17 14 12 13 10 10 10 10 10 11 9 9 11 15 8 3 2 7 8 7 4 6 8 9 10 12 12
9 7 8 10 11 13 17 17 16 16 11 9 13 9 10 3 8 12 15 14 14 13 10 11 9 10 12 12 14 16 16 13 11 9 10 10 15 5 7 7 9 10 11 12 13
8 5 7 9 10 12 15 12 6 7 11 12 0 14 9 17 6 11 14 15 11 14 12 14 12 15 19 16 16 6 10 13 3 3 4 12 13 11 8 10 9 11 12 12 13
8 4 7 8 10 12 10 7 9 6 10 15 20 18 21 13 7 10 11 12 12 16 16 9 14 16 14 17 13 11 11 11 5 3 2 14 20 15 5 4 5 8 11 13 13
7 3 5 8 11 8 9 12 10 11 7 2 6 8 6 5 6 11 12 11 14 17 17 14 7 3 7 9 12 12 12 9 7 4 6 14 15 16 7 4 2 2 5 10 12
6 3 4 5 5 4 6 3 11 7 6 6 6 3 5 4 4 1 4 4 7 14 15 15 7 6 9 14 12 14 6 4 6 4 7 5 8 8 8 5 2 6 6 3 7
7 4 4 6 10 6 4 9 8 4 1 3 5 2 1 4 9 5 2 6 9 11 10 6 8 10 10 3 10 4 6 5 5 7 6 12 5 1 5 5 5 8 8 6 2
7 6 4 6 9 12 12 12 4 4 2 3 2 5 8 2 2 5 6 3 5 6 6 10 6 3 3 4 5 9 8 6 4 5 8 11 7 3 3 6 5 6 9 7 4
8 8 9 5 3 6 18 7 4 3 2 3 0 4 3 4 4 9 12 9 6 10 10 10 6 5 8 9 5 7 7 5 6 5 5 3 4 5 6 5 5 6 9 9 8
8 9 11 14 6 7 12 5 3 8 1 2 1 4 1 1 2 5 8 7 4 8 12 10 7 8 3 3 4 10 7 7 6 6 1 5 6 5 7 6 8 8 9 10 10
7 8 12 9 9 7 5 8 7 5 5 3 6 7 3 3 4 3 4 3 4 5 5 8 6 5 4 1 4 6 6 4 7 7 8 8 7 7 7 7 8 9 9 9 9
7 8 14 7 8 6 5 9 5 2 4 3 1 7 10 3 1 2 6 2 1 3 5 3 5 1 3 2 3 4 2 3 4 4 7 6 4 3 11 9 9 9 10 9 9
11 5 6 7 8 5 7 7 3 1 2 4 5 4 3 3 5 7 2 3 0 1 4 3 2 5 4 7 4 5 5 4 4 3 5 6 4 7 10 10 8 8 8 8 8
12 5 7 10 5 6 7 2 2 3 3 3 4 4 4 7 4 4 2 3 3 3 2 3 4 5 4 3 2 4 4 6 5 5 4 3 1 1 9 7 7 8 7 6 6
6 5 6 9 6 8 6 4 4 3 3 2 2 2 1 4 4 3 3 2 2 2 1 1 4 5 5 4 3 5 8 7 3 2 9 6 2 5 6 7 7 8 7 6 5
6 4 5 7 10 9 11 11 6 3 3 3 2 2 2 4 2 3 4 2 1 1 5 4 2 5 4 5 3 5 8 9 10 6 8 9 5 9 8 8 8 6 6 6 3
4 6 3 4 11 13 11 6 7 4 4 3 3 7 6 4 5 4 4 3 1 1 2 3 3 2 2 2 2 4 5 9 13 13 10 8 5 5 4 7 7 7 6 5 4
4 5 3 10 5 8 10 11 13 6 4 3 6 2 4 4 3 2 6 5 1 5 4 1 1 1 3 1 4 7 9 10 11 13 13 12 14 8 4 2 5 6 6 6 4
10 13 6 2 7 8 10 10 8 5 3 2 4 3 5 3 3 5 5 5 4 4 4 3 2 2 1 0 5 10 11 13 9 7 8 9 4 4 4 5 6 5 5 3 2

GFSSW_925_spd_072.txt.gz
Wind_Speed
11 12 14 14 14 12 13 13 13 13 14 16 18 19 21 23 27 22 21 21 11 24 22 14 13 10 9 4 7 4 3 6 14 7 6 10 6 2 4 6 1 3 8 14 26
12 12 13 14 15 13 12 13 12 13 14 15 17 19 22 23 25 26 27 20 24 24 13 13 11 11 5 6 4 5 4 9 7 7 2 9 10 8 4 5 5 5 8 18 20
12 11 13 13 14 10 10 11 12 13 14 15 17 19 21 22 16 2 6 8 28 23 18 18 16 5 6 7 7 7 5 11 4 7 3 9 7 8 5 7 6 13 12 9 13
11 10 12 12 12 10 10 10 12 13 14 16 17 19 21 12 6 7 18 19 11 25 16 18 13 11 7 8 6 5 13 12 4 2 3 8 6 6 6 4 7 9 14 9 9
11 12 11 12 11 10 11 12 13 14 16 17 17 18 14 9 15 27 26 17 8 17 23 16 14 12 9 4 7 8 12 10 7 2 4 6 5 1 8 8 5 7 11 10 9
11 12 11 12 11 12 13 13 14 16 17 18 18 18 14 21 16 19 18 11 8 19 22 19 13 13 8 9 6 5 2 5 4 2 4 2 4 4 7 7 5 6 7 9 8
12 12 12 11 11 13 15 16 17 18 19 19 17 15 16 24 19 24 18 11 13 17 16 21 20 13 10 5 7 4 2 4 3 3 6 9 5 9 2 6 7 7 8 8 8
11 11 12 11 12 15 17 19 20 20 21 19 16 13 10 22 21 23 23 20 19 15 18 18 18 11 9 7 4 4 2 3 2 3 1 4 4 10 7 5 7 8 8 8 8
10 11 11 10 15 19 20 19 20 19 19 16 11 12 13 17 18 22 20 19 16 16 18 14 7 8 7 7 6 6 6 8 7 4 2 5 5 4 5 5 6 6 7 9 8
10 11 10 11 13 15 19 18 17 16 13 10 14 11 12 8 16 15 21 20 13 13 12 10 7 10 9 10 10 11 13 9 11 7 5 4 5 17 17 9 7 6 7 6 9
10 10 10 10 12 14 17 11 2 4 8 9 8 10 21 22 23 9 14 18 13 12 11 14 10 13 16 17 16 14 5 5 5 5 5 8 3 10 9 9 7 5 7 6 10
9 10 10 10 13 14 10 6 8 7 12 16 20 21 25 20 9 11 15 10 12 13 15 8 14 15 17 16 17 13 8 10 10 6 4 4 6 12 14 0 4 5 6 6 5
9 11 10 10 13 10 6 15 11 12 6 10 10 8 7 5 8 11 5 11 8 13 14 12 12 18 15 13 13 10 6 4 8 6 3 3 5 9 3 7 4 1 3 6 8
11 9 10 10 8 9 7 7 11 8 4 5 4 4 3 6 1 7 14 5 7 15 14 13 5 11 5 8 5 8 10 2 7 5 5 7 4 4 11 8 6 8 7 7 7
14 11 10 7 12 6 8 14 11 3 4 4 4 0 3 3 2 3 2 6 8 12 9 4 6 2 7 5 8 2 5 5 6 7 6 8 2 2 9 8 8 8 6 5 8
16 13 10 8 7 11 11 15 8 3 4 3 3 2 4 5 2 3 3 6 8 10 3 2 4 4 1 6 6 9 5 4 1 2 4 12 8 0 3 5 7 8 6 5 4
15 17 13 12 5 10 14 8 2 5 9 11 7 1 7 0 3 5 7 7 4 3 5 6 5 2 7 5 3 6 7 3 3 3 3 5 5 5 7 7 7 8 7 6 5
12 16 18 18 10 13 14 4 2 6 2 5 8 8 7 5 2 5 11 7 7 4 6 6 5 6 4 1 4 7 3 2 3 3 4 2 4 4 8 8 8 8 7 7 7
13 13 12 14 13 7 5 5 4 3 5 13 13 9 9 9 7 4 9 6 4 6 3 5 4 4 5 3 4 5 3 2 3 5 2 5 5 4 8 8 9 9 8 7 8
6 10 22 15 10 7 4 9 4 2 3 9 9 8 4 14 8 3 5 2 3 3 4 5 5 1 2 2 1 4 3 1 2 2 4 6 6 6 9 8 9 9 8 7 7
3 4 3 9 9 5 5 10 3 4 3 4 6 12 10 2 3 3 3 1 4 4 2 6 2 3 3 5 3 3 2 3 1 2 1 4 3 5 9 9 9 9 8 7 7
2 4 6 9 4 5 7 2 1 4 3 4 4 7 2 4 4 4 2 4 5 6 3 2 4 3 3 3 4 4 3 7 2 2 2 2 1 5 9 8 9 9 7 7 7
2 7 8 9 5 8 12 4 2 2 3 2 3 1 3 3 4 2 4 1 3 4 4 6 3 4 3 1 1 3 3 3 4 3 3 1 2 4 6 6 6 9 8 7 7
2 3 3 5 8 16 14 13 10 1 3 3 3 1 4 4 3 1 1 2 2 4 5 3 3 3 2 4 2 4 4 5 4 2 3 2 6 6 7 6 6 6 8 8 7
3 4 6 5 7 12 13 11 14 7 3 3 3 4 5 4 2 3 5 1 1 2 2 3 3 5 6 4 4 4 5 7 7 6 3 3 4 9 9 10 10 9 8 7 8
2 3 5 10 15 14 11 11 14 14 2 3 4 3 3 1 5 5 5 4 3 2 2 2 2 2 3 4 1 3 5 6 6 6 6 6 5 7 7 7 6 8 7 5 2
5 14 5 7 12 10 10 13 6 6 3 2 6 4 4 3 4 3 5 5 4 4 4 3 1 1 2 1 4 6 2 8 5 4 1 5 3 5 4 4 5 4 6 4 7

GFSSW_925_spd_078.txt.gz
Wind_Speed
13 14 12 13 14 14 13 12 13 14 14 15 17 19 21 24 28 25 8 13 9 4 8 13 12 6 4 3 3 4 2 3 5 6 7 4 6 1 2 6 2 3 7 10 34
15 14 13 13 14 14 10 11 13 14 14 16 18 20 21 25 28 16 7 6 12 11 12 7 3 8 2 4 3 4 4 8 5 3 6 7 6 8 6 5 3 2 3 30 34
15 13 14 14 14 14 11 11 12 13 15 16 18 21 22 22 7 6 10 6 13 11 21 12 7 2 3 4 4 6 6 6 4 6 4 5 6 3 10 2 7 10 12 20 19
14 14 13 15 14 14 13 13 14 14 15 16 17 19 22 7 6 3 13 11 22 17 11 8 4 3 5 6 5 4 4 2 4 5 4 2 2 5 4 7 9 12 21 15 14
14 14 14 15 15 15 15 15 16 16 16 16 16 17 10 3 11 23 25 22 17 12 16 7 6 5 5 6 4 6 5 5 4 3 3 1 1 4 4 1 8 9 13 16 14
13 14 15 16 18 18 18 19 19 19 18 18 17 16 5 8 9 14 17 18 16 11 9 10 6 8 5 5 8 7 7 5 3 3 4 4 2 0 2 1 9 13 11 9 10
12 14 15 16 18 19 20 22 23 23 21 18 14 10 8 17 13 24 23 22 24 18 5 17 24 3 1 3 4 5 5 3 4 3 2 3 6 4 4 3 8 7 6 7 8
10 12 14 16 18 20 22 25 24 22 20 16 12 7 8 18 15 22 20 19 17 17 18 17 20 4 3 5 3 6 5 5 3 5 2 5 3 4 5 7 4 5 7 8 7
6 7 12 16 18 22 25 26 25 19 14 10 6 4 11 14 12 20 14 12 13 15 11 14 8 6 4 4 2 1 5 4 3 1 4 3 4 5 2 3 6 7 6 8 7
5 7 9 14 16 21 24 19 12 6 3 2 4 4 7 5 14 23 17 15 6 3 4 6 5 4 4 5 13 4 6 3 6 7 2 4 6 4 5 5 4 5 7 8 7
7 7 9 10 13 16 23 8 7 4 1 8 6 6 16 11 23 7 15 6 1 1 2 4 3 7 5 8 7 5 6 6 2 5 4 8 4 7 7 5 7 6 7 6 9
7 8 9 10 11 13 12 4 5 9 11 14 18 15 29 14 8 12 4 5 4 5 4 2 5 6 6 4 8 4 5 4 1 4 3 6 8 10 5 5 6 8 6 4 4
7 6 8 10 4 11 11 4 17 15 4 9 5 5 6 8 6 7 6 2 2 3 5 4 3 3 4 5 7 6 5 5 5 3 1 6 6 6 4 3 4 4 5 6 2
9 7 7 10 1 10 2 17 21 8 3 6 3 5 1 2 5 3 5 4 6 3 5 3 4 4 4 6 8 11 8 8 7 7 5 3 4 4 3 5 4 3 3 5 2
6 7 8 7 4 1 5 16 19 1 5 10 5 4 2 3 6 5 1 4 2 3 4 5 2 5 6 11 7 8 7 12 8 5 5 1 3 6 3 3 4 2 2 0 2
7 5 5 5 8 4 11 17 4 4 4 5 5 8 8 4 3 3 2 3 3 2 2 2 1 2 3 2 3 5 7 7 4 2 0 6 6 5 5 7 4 2 0 3 5
9 9 7 8 4 6 13 5 4 3 4 7 7 6 6 4 5 2 0 3 1 5 5 2 4 2 1 4 5 3 6 3 1 1 5 4 4 7 2 5 7 7 4 6 5
11 11 10 14 10 4 2 5 3 4 2 1 5 9 4 5 5 6 2 2 3 3 2 3 6 2 2 4 7 6 6 5 6 5 4 6 6 4 2 4 7 6 6 6 7
12 8 7 2 8 3 4 4 5 4 4 2 3 5 5 4 3 5 2 1 2 2 1 5 6 2 1 2 3 5 3 4 5 2 3 2 3 4 4 5 5 7 7 7 7
10 7 6 1 9 1 4 3 4 4 0 1 1 0 3 5 6 6 3 4 3 2 3 1 2 1 1 2 3 2 3 2 3 3 3 3 3 4 8 8 6 7 8 6 6
4 3 5 11 8 4 3 5 5 7 4 4 4 2 5 4 3 4 5 3 3 7 4 1 1 5 1 2 5 1 0 4 4 4 4 2 6 5 12 12 11 9 8 8 7
3 1 9 15 3 1 2 4 6 5 3 5 3 7 4 1 3 3 1 1 5 0 2 1 3 1 5 4 1 3 4 4 4 3 1 4 5 4 8 12 11 8 8 7 7
1 2 6 4 1 2 5 5 4 4 3 4 3 2 2 3 3 4 2 2 1 3 1 2 2 2 6 5 3 2 3 4 5 3 3 4 5 4 5 7 7 10 8 8 8
2 2 3 3 1 3 2 4 5 4 5 5 4 3 3 3 3 4 3 2 3 2 3 3 1 4 5 5 3 2 3 3 5 3 3 5 3 2 5 9 7 7 9 11 10
1 3 2 2 3 2 2 3 4 6 4 3 3 4 3 3 5 3 1 4 1 2 1 2 2 2 4 3 2 2 3 6 5 4 5 3 7 7 9 11 15 11 9 8 7
2 1 4 2 2 4 2 3 3 5 3 6 3 3 2 4 5 4 0 2 4 2 1 1 3 2 3 3 2 3 3 3 3 3 2 4 4 2 4 6 6 9 11 8 7
0 0 3 3 3 2 4 1 5 2 7 2 3 3 4 3 2 4 3 1 4 3 4 2 2 2 3 4 4 6 5 6 4 4 6 6 7 3 2 6 8 9 8 8 8

GFSSW_925_spd_081.txt.gz
Wind_Speed
14 12 13 12 13 14 11 12 12 14 14 16 18 21 23 25 29 26 8 7 7 13 14 15 12 6 3 2 4 4 3 4 5 6 6 4 5 2 2 7 2 7 8 6 33
11 13 12 13 14 14 14 11 12 14 15 16 18 20 24 26 28 18 14 7 11 11 9 5 4 6 2 4 3 4 5 9 5 5 4 4 6 9 6 5 3 2 3 24 32
10 11 11 12 14 14 14 14 15 15 15 16 17 20 24 24 6 5 10 7 16 16 8 10 8 4 3 3 4 5 6 5 6 3 6 3 5 4 11 4 7 10 8 19 26
10 12 14 13 14 15 15 15 15 16 17 17 18 19 22 9 2 2 1 19 21 16 4 5 5 2 4 6 5 4 5 6 4 3 1 4 4 4 8 7 9 10 20 18 17
10 11 12 12 14 14 15 15 15 17 17 17 17 18 10 5 9 7 14 16 15 9 2 5 5 5 4 5 3 4 4 4 4 2 3 1 1 4 3 4 7 11 15 21 17
8 9 10 12 13 14 16 17 17 17 17 16 15 14 5 7 5 12 15 20 16 7 3 4 5 6 4 5 8 6 6 4 5 4 2 3 2 4 2 3 8 13 13 12 12
7 7 9 12 13 14 15 17 18 18 18 14 10 9 7 16 8 19 21 19 16 12 2 6 15 3 5 4 6 4 6 1 4 5 4 1 4 4 4 3 6 7 7 8 8
10 9 9 11 12 15 18 22 23 19 17 13 7 4 7 18 18 23 16 16 11 13 14 13 9 5 4 6 2 7 5 6 5 7 2 2 4 2 4 5 5 6 6 5 6
11 10 10 11 14 17 20 24 14 14 6 3 2 3 11 13 11 16 9 11 12 8 11 8 5 5 4 2 2 2 5 4 3 4 4 3 4 4 3 3 6 6 6 7 7
12 12 10 11 14 16 19 11 13 7 7 4 2 3 8 6 12 18 20 11 5 3 3 5 4 4 3 4 8 4 5 2 5 6 1 3 4 4 5 5 8 8 10 11 9
12 14 10 9 11 14 18 4 8 5 3 6 5 5 14 12 22 5 12 5 1 3 4 5 3 8 4 4 4 3 6 5 2 5 4 9 7 11 8 6 7 8 7 8 7
11 11 12 12 10 8 8 6 6 4 9 9 16 10 24 12 6 1 3 2 3 3 3 2 7 8 8 7 9 6 6 4 1 2 1 4 9 6 7 6 7 9 8 7 6
11 10 10 13 11 5 2 5 3 1 2 8 5 5 6 9 5 6 6 3 3 3 7 5 5 7 7 6 12 5 6 4 3 2 3 4 6 6 4 5 3 2 4 4 8
11 9 9 13 5 6 3 5 6 7 4 6 4 5 2 4 5 6 7 4 2 1 3 4 3 6 2 4 7 6 5 5 6 4 4 2 4 5 3 5 3 5 3 2 2
10 10 8 9 12 4 2 10 7 4 4 5 5 4 6 3 4 3 3 1 4 2 4 4 3 2 3 4 5 6 5 7 5 4 2 2 1 5 1 5 6 4 3 2 3
11 10 12 6 9 8 10 17 1 5 4 7 4 5 7 1 3 5 2 5 2 1 0 2 1 1 2 3 3 7 7 8 5 3 2 6 6 5 5 6 4 3 1 4 6
11 11 12 10 4 10 15 3 4 4 4 9 4 7 4 4 6 2 4 5 3 3 5 3 3 1 1 5 4 5 6 2 1 2 4 3 3 8 4 4 5 7 2 5 5
12 14 13 18 11 11 7 4 3 3 5 5 4 7 4 6 4 6 1 2 5 3 2 5 3 3 3 4 5 4 6 5 5 5 4 2 6 5 3 4 6 7 5 5 6
14 9 9 5 3 3 4 3 4 3 4 6 9 4 5 3 2 6 4 1 2 3 4 2 6 9 3 3 6 4 4 3 4 3 3 3 4 4 3 4 5 7 7 6 6
11 7 6 4 4 1 4 4 4 5 4 2 2 2 4 5 6 6 6 3 4 0 2 4 0 4 5 1 1 4 6 4 1 3 4 3 3 5 5 6 5 5 7 5 5
6 3 9 4 3 4 3 5 5 6 3 4 3 3 5 4 2 3 3 1 1 4 4 2 5 3 2 2 5 2 2 2 4 3 4 0 5 5 9 9 10 8 7 8 7
3 2 2 4 3 1 1 4 4 5 1 5 3 5 4 3 4 3 3 2 3 2 4 1 2 1 3 2 0 2 1 4 4 3 2 4 5 2 7 9 9 9 8 7 7
1 2 1 2 1 2 5 5 3 3 3 2 4 4 2 3 3 3 4 1 1 4 3 4 3 3 2 3 3 2 4 3 5 3 4 5 5 4 4 8 8 10 8 8 8
2 2 3 3 1 1 3 4 4 3 5 4 4 2 2 3 3 5 3 1 3 1 2 1 0 3 4 4 2 3 3 3 4 3 4 6 4 3 5 9 7 7 8 9 8
2 3 2 3 3 2 2 3 5 5 3 3 4 2 4 4 5 2 2 5 2 1 2 2 2 2 4 4 2 3 4 6 6 4 5 4 7 6 9 12 12 9 7 8 7
2 1 1 2 3 2 2 3 1 5 3 4 2 7 3 3 4 6 3 2 3 3 2 1 1 3 3 2 2 4 6 5 5 3 4 4 5 3 4 7 6 9 10 10 6
1 1 3 2 1 0 4 2 1 4 5 5 4 4 6 5 4 4 4 3 5 3 1 2 2 3 4 4 5 6 5 6 4 3 6 6 8 4 4 6 6 8 9 7 7

GFSSW_925_spd_084.txt.gz
Wind_Speed
7 9 8 10 12 11 13 10 11 14 16 18 19 22 25 27 33 28 6 3 8 16 13 12 6 4 1 3 3 4 2 4 6 6 5 3 5 2 3 7 3 6 6 2 33
9 9 10 10 12 12 12 13 12 14 15 17 18 21 26 30 30 15 5 10 12 14 9 4 3 7 0 3 3 4 5 9 5 5 3 3 5 8 6 5 4 3 5 22 30
11 11 11 11 10 12 12 11 11 12 14 16 18 21 24 26 5 3 1 2 20 16 9 2 4 1 2 2 4 5 6 5 5 5 1 3 2 5 7 4 8 12 10 16 24
12 11 11 11 11 11 12 12 11 11 13 14 17 20 25 9 3 2 7 10 15 13 6 1 4 1 3 5 4 3 7 5 4 3 0 3 2 4 6 7 4 10 19 15 17
12 13 13 14 13 13 13 13 14 13 13 12 13 16 11 5 8 3 11 13 13 8 3 1 2 3 4 4 3 5 3 6 3 4 4 1 6 6 7 6 2 11 17 19 17
11 12 13 14 13 13 13 14 15 15 14 10 9 10 4 5 4 7 12 20 13 4 2 2 4 4 5 4 7 3 6 4 4 3 3 3 3 1 0 5 5 12 16 14 16
12 13 13 13 15 16 18 20 21 20 16 10 5 4 4 13 7 17 17 17 16 9 2 5 6 2 6 4 4 4 4 1 5 5 5 4 3 4 3 2 4 5 7 10 11
13 14 13 13 15 17 20 24 21 15 12 9 3 0 7 9 13 19 15 13 9 7 13 10 4 3 5 7 5 6 6 5 4 8 3 6 6 3 2 4 5 3 5 7 8
13 13 12 13 14 17 20 22 11 7 5 4 5 5 10 10 9 13 11 8 10 8 10 3 6 5 3 3 3 3 6 5 2 5 4 4 4 3 1 5 7 8 8 8 7
13 13 13 13 15 16 20 18 8 1 5 5 4 0 6 5 9 19 11 11 5 1 1 4 3 3 2 4 9 3 5 3 6 6 2 2 3 4 3 3 8 8 8 7 10
12 13 14 13 15 15 21 7 7 3 2 5 3 4 10 13 13 5 7 2 2 1 4 4 3 6 7 6 7 2 5 5 3 5 5 7 5 8 7 5 7 8 8 6 6
12 12 13 14 16 11 9 5 2 3 7 6 6 7 16 7 5 5 4 2 2 4 2 2 7 10 11 11 11 9 5 4 2 3 3 5 9 8 7 6 6 7 6 7 4
13 13 13 14 13 5 4 3 6 4 2 7 5 5 5 7 5 6 8 2 3 2 6 7 9 11 8 8 10 8 4 5 4 3 3 4 5 4 6 5 4 4 6 5 9
11 12 14 15 4 10 3 2 11 2 4 6 4 4 2 3 5 6 8 4 1 5 4 5 4 7 4 7 8 8 6 5 6 4 3 1 4 4 3 7 4 3 2 5 4
12 10 11 11 11 4 3 10 6 3 5 7 5 3 7 4 5 2 4 3 5 5 1 4 3 4 4 4 6 6 1 5 4 4 2 1 1 6 1 6 7 6 5 2 2
13 12 11 6 7 5 11 11 1 5 4 7 4 7 7 3 4 5 2 4 1 4 1 4 2 3 1 3 2 8 6 7 5 3 1 5 5 5 5 5 0 3 5 0 4
14 13 13 11 3 8 15 2 4 5 4 8 6 5 4 5 7 5 3 3 2 7 6 4 3 4 2 4 5 4 5 3 2 1 4 1 5 10 2 2 3 8 6 2 3
15 14 12 12 13 14 8 4 1 1 4 5 4 8 4 6 4 6 5 2 2 3 2 6 2 5 6 1 4 2 6 4 5 4 4 2 5 5 2 3 3 6 4 3 3
15 9 7 6 6 4 4 2 5 5 3 5 8 4 5 3 1 7 4 2 3 4 5 8 5 5 1 2 3 3 2 3 4 2 2 2 5 3 2 3 4 5 5 3 3
11 7 3 6 4 4 4 5 3 3 2 2 1 1 4 6 7 6 5 1 3 1 3 6 3 1 2 3 1 4 6 3 3 2 2 3 4 5 4 6 4 4 5 4 4
4 3 9 4 1 4 2 5 5 5 4 5 5 3 5 4 2 4 5 3 4 6 2 6 2 3 8 1 4 2 1 6 4 3 2 2 5 5 4 8 9 8 7 6 6
3 2 1 4 3 1 1 2 6 5 2 5 3 5 4 2 4 3 3 3 4 1 2 3 3 3 4 3 1 1 2 5 4 5 2 2 5 0 5 7 9 9 7 5 5
2 2 3 2 0 2 5 4 3 4 4 3 4 4 3 2 3 4 5 2 4 4 3 2 0 2 3 3 4 3 3 3 4 3 4 5 5 2 2 5 7 9 7 7 6
2 2 3 3 1 3 2 4 5 5 4 4 4 2 3 2 3 5 4 4 3 2 4 3 1 4 4 3 2 4 4 4 4 3 5 6 5 3 3 6 6 6 7 8 6
3 2 2 2 2 2 0 2 4 4 4 5 4 5 4 3 4 2 3 6 2 5 3 2 2 2 5 5 3 3 5 5 7 4 5 3 6 6 6 8 8 7 6 7 7
3 2 2 1 1 2 2 3 1 5 1 5 4 9 6 4 4 5 3 2 2 4 3 2 2 2 3 3 2 4 6 6 4 2 6 1 6 6 2 6 6 7 7 7 7
3 1 3 2 1 2 4 3 2 3 5 5 4 7 7 5 5 6 6 5 5 2 3 2 2 4 4 5 6 5 3 4 4 4 5 5 8 4 2 1 2 5 7 7 7

GFSSW_925_spd_087.txt.gz
Wind_Speed
10 10 11 10 11 11 11 11 11 12 13 15 17 18 21 25 29 11 2 4 8 13 14 10 5 2 2 2 2 3 3 7 8 7 4 3 6 1 0 5 2 6 3 1 27
9 11 11 11 10 11 12 11 11 12 12 14 16 19 22 26 18 5 2 5 7 18 13 7 3 7 1 2 3 4 5 9 5 4 4 4 3 6 4 4 4 4 5 19 28
11 11 11 11 11 11 12 12 12 13 14 14 16 18 23 19 2 2 4 7 11 12 9 3 2 2 2 2 4 4 9 5 5 5 3 3 3 5 7 5 9 16 14 21 26
11 11 12 13 14 15 15 15 16 15 16 16 17 19 19 7 3 4 5 9 13 7 3 3 2 1 2 5 4 5 7 6 5 6 6 6 5 5 9 8 4 8 19 21 22
11 12 14 14 14 14 15 16 17 17 17 16 14 15 9 4 5 3 7 9 9 7 1 2 2 2 4 3 4 6 4 6 5 7 4 6 6 5 8 8 5 8 20 22 22
12 13 13 13 13 13 15 18 20 20 18 15 11 11 3 4 3 4 8 13 9 4 1 4 4 3 4 4 4 3 11 12 7 6 5 7 4 6 2 2 2 11 17 19 22
12 13 12 13 13 15 17 21 23 20 18 13 7 5 2 8 4 10 13 11 11 4 2 6 4 3 1 4 4 5 8 4 8 6 6 4 4 7 2 3 6 9 11 13 16
11 11 11 12 14 17 19 24 24 13 9 6 4 1 6 6 10 13 10 9 5 5 7 7 3 3 3 4 9 5 6 11 6 8 2 7 14 5 4 8 8 8 8 8 11
11 11 10 12 14 17 21 27 11 6 7 5 5 2 8 5 7 7 6 4 4 3 3 2 3 3 2 4 6 4 13 12 4 7 5 6 4 4 3 6 9 8 9 9 10
11 11 11 13 15 19 21 19 7 3 5 4 1 1 5 3 8 14 3 4 2 2 2 2 1 2 1 5 11 8 8 5 16 6 2 6 3 2 2 4 7 8 7 10 12
10 10 11 13 16 18 20 5 7 3 2 4 3 5 7 15 7 2 2 3 3 2 3 4 4 11 11 10 11 4 5 11 5 7 6 9 6 8 5 3 6 8 10 11 13
10 10 10 13 16 11 9 6 3 3 7 6 6 6 12 5 5 3 5 3 2 4 2 1 12 14 12 12 13 19 14 12 2 3 4 6 10 5 7 6 8 10 10 9 6
11 11 11 12 12 7 6 5 5 2 2 7 5 4 5 4 4 5 7 2 5 3 5 8 13 8 12 13 12 16 14 10 8 4 2 5 4 6 6 10 7 7 7 7 9
12 12 12 13 2 8 3 1 14 4 4 5 3 3 3 3 4 5 6 3 1 4 2 7 7 13 8 13 14 12 11 9 7 6 5 1 3 4 6 9 8 10 8 8 7
13 12 12 10 6 1 3 9 4 2 4 8 4 2 6 3 5 2 2 2 1 10 4 8 4 6 11 7 11 8 3 6 2 2 2 1 2 4 1 5 10 9 7 7 5
12 12 11 6 7 1 9 7 3 4 3 6 4 6 7 3 3 6 2 3 1 6 3 9 2 1 2 2 2 9 6 7 1 2 3 4 4 4 5 5 0 3 7 7 4
13 12 11 7 3 5 9 1 4 4 4 7 4 6 3 4 6 3 2 3 3 8 10 7 4 4 3 4 4 3 5 0 2 3 3 0 4 9 3 2 2 5 8 4 1
16 13 6 5 7 8 1 4 0 1 3 3 4 6 4 6 3 5 4 3 3 3 4 7 5 7 6 3 1 1 7 3 3 4 3 2 5 4 0 2 3 1 4 1 0
15 7 2 6 3 2 4 3 4 4 2 5 6 3 5 3 1 6 2 3 3 4 4 6 6 5 2 3 1 2 6 5 4 2 1 1 5 4 1 2 2 3 3 2 2
11 4 4 2 3 2 4 4 3 2 3 1 2 1 3 5 6 4 4 2 4 2 5 7 4 3 5 1 1 4 5 2 3 1 1 2 4 4 2 6 5 4 4 3 4
5 2 6 3 3 4 2 5 4 5 3 4 3 3 5 4 2 3 4 3 3 5 0 7 3 6 5 3 2 2 1 5 4 2 1 3 3 4 2 5 9 6 4 4 6
2 2 1 4 3 1 2 3 3 5 1 4 3 5 4 2 3 3 3 4 2 0 4 2 2 1 6 6 3 3 1 3 3 3 2 1 4 1 2 3 8 8 6 6 7
2 2 3 1 1 2 4 3 3 3 3 4 3 2 2 3 3 4 3 4 2 3 3 3 1 1 3 3 2 2 0 3 4 2 5 3 4 1 3 1 7 10 8 8 9
2 2 3 3 1 2 2 3 4 3 3 3 4 4 5 3 2 4 3 3 5 0 3 2 2 3 3 2 2 3 3 3 3 2 4 5 5 5 3 2 5 6 8 10 9
3 2 1 2 2 0 2 1 2 4 3 5 1 5 2 4 5 3 3 5 4 5 3 3 2 3 6 6 3 3 4 5 6 3 5 1 4 5 4 4 8 8 9 10 10
4 3 1 1 1 1 1 3 2 3 2 4 1 7 2 4 4 5 4 3 5 5 4 3 2 4 3 3 3 4 6 3 4 4 5 3 6 5 3 3 5 8 10 11 10
3 3 3 1 2 2 3 3 2 1 4 4 1 4 7 4 4 10 8 6 4 3 2 2 2 4 4 4 4 3 3 3 2 3 4 4 4 2 2 3 4 6 9 9 9